Time,TemperatureF,DewpointF,PressureIn,WindDirection,WindDirectionDegrees,WindSpeedMPH,WindSpeedGustMPH,Humidity,HourlyPrecipIn,Conditions,Clouds,dailyrainin,SoftwareType,DateUTC
2013-02-16 00:12:00,32.1,31.0,29.94,SSE,156,0.0,0.0,97,0.00,,,0.00,weatherlink.com 1.10,2013-02-16 05:12:00,
2013-02-16 00:27:00,32.4,32.0,29.94,SSE,156,0.0,1.0,97,0.00,,,0.00,weatherlink.com 1.10,2013-02-16 05:27:00,
2013-02-16 00:42:00,32.3,31.0,29.93,SSE,156,0.0,0.0,96,0.00,,,0.00,weatherlink.com 1.10,2013-02-16 05:42:00,
2013-02-16 00:57:00,32.5,32.0,29.93,SSE,155,0.0,1.0,97,0.00,,,0.00,weatherlink.com 1.10,2013-02-16 05:57:00,
2013-02-16 01:12:00,32.5,32.0,29.93,SSE,156,0.0,0.0,97,0.00,,,0.00,weatherlink.com 1.10,2013-02-16 06:12:00,
2013-02-16 01:27:00,32.5,32.0,29.92,SSE,156,0.0,0.0,97,0.00,,,0.00,weatherlink.com 1.10,2013-02-16 06:27:00,
2013-02-16 01:42:00,33.2,33.0,29.92,SSE,156,0.0,1.0,97,0.00,,,0.00,weatherlink.com 1.10,2013-02-16 06:42:00,
2013-02-16 01:57:00,33.2,33.0,29.92,SSE,156,0.0,0.0,97,0.00,,,0.00,weatherlink.com 1.10,2013-02-16 06:57:00,
2013-02-16 02:12:00,33.2,33.0,29.91,SSE,156,0.0,0.0,97,0.00,,,0.00,weatherlink.com 1.10,2013-02-16 07:12:00,
2013-02-16 02:27:00,33.0,32.0,29.91,SSE,156,0.0,1.0,97,0.00,,,0.00,weatherlink.com 1.10,2013-02-16 07:27:00,
2013-02-16 02:42:00,33.0,32.0,29.90,SSE,156,0.0,1.0,97,0.00,,,0.00,weatherlink.com 1.10,2013-02-16 07:42:00,
2013-02-16 02:57:00,32.9,32.0,29.89,ESE,119,0.0,1.0,97,0.00,,,0.00,weatherlink.com 1.10,2013-02-16 07:57:00,
2013-02-16 03:12:00,32.9,32.0,29.90,NNW,339,1.0,2.0,97,0.00,,,0.00,weatherlink.com 1.10,2013-02-16 08:12:00,
2013-02-16 03:27:00,32.9,32.0,29.89,NNW,339,0.0,1.0,97,0.00,,,0.00,weatherlink.com 1.10,2013-02-16 08:27:00,
2013-02-16 03:43:00,33.1,32.0,29.89,NNW,339,0.0,1.0,97,0.00,,,0.00,weatherlink.com 1.10,2013-02-16 08:43:00,
2013-02-16 03:58:00,33.2,33.0,29.89,NNW,339,1.0,1.0,98,0.00,,,0.00,weatherlink.com 1.10,2013-02-16 08:58:00,
2013-02-16 04:13:00,33.2,33.0,29.90,North,359,1.0,1.0,98,0.00,,,0.00,weatherlink.com 1.10,2013-02-16 09:13:00,
2013-02-16 04:28:00,32.8,32.0,29.90,NNW,347,0.0,2.0,97,0.00,,,0.00,weatherlink.com 1.10,2013-02-16 09:28:00,
2013-02-16 04:43:00,32.8,32.0,29.90,WSW,248,0.0,1.0,97,0.00,,,0.00,weatherlink.com 1.10,2013-02-16 09:43:00,
2013-02-16 04:58:00,33.1,33.0,29.89,ENE,78,0.0,2.0,98,0.00,,,0.00,weatherlink.com 1.10,2013-02-16 09:58:00,
2013-02-16 05:13:00,33.0,33.0,29.89,WSW,257,0.0,1.0,98,0.00,,,0.00,weatherlink.com 1.10,2013-02-16 10:13:00,
2013-02-16 05:28:00,32.8,32.0,29.89,WSW,257,0.0,1.0,98,0.00,,,0.00,weatherlink.com 1.10,2013-02-16 10:28:00,
2013-02-16 05:43:00,32.9,32.0,29.89,NNW,341,2.0,2.0,98,0.00,,,0.00,weatherlink.com 1.10,2013-02-16 10:43:00,
2013-02-16 05:58:00,32.8,32.0,29.91,WNW,295,0.0,2.0,98,0.00,,,0.00,weatherlink.com 1.10,2013-02-16 10:58:00,
2013-02-16 06:13:00,32.6,32.0,29.90,NE,39,1.0,3.0,98,0.00,,,0.00,weatherlink.com 1.10,2013-02-16 11:13:00,
2013-02-16 06:28:00,32.7,32.0,29.90,North,8,2.0,4.0,97,0.00,,,0.00,weatherlink.com 1.10,2013-02-16 11:28:00,
2013-02-16 06:43:00,33.1,32.0,29.91,NE,46,3.0,4.0,95,0.00,,,0.00,weatherlink.com 1.10,2013-02-16 11:43:00,
2013-02-16 06:58:00,33.4,31.0,29.90,NNE,22,1.0,2.0,92,0.00,,,0.00,weatherlink.com 1.10,2013-02-16 11:58:00,
2013-02-16 07:13:00,33.8,31.0,29.91,NNE,13,1.0,3.0,90,0.00,,,0.00,weatherlink.com 1.10,2013-02-16 12:13:00,
2013-02-16 07:28:00,34.0,31.0,29.91,NE,34,1.0,7.0,89,0.00,,,0.00,weatherlink.com 1.10,2013-02-16 12:28:00,
2013-02-16 07:43:00,34.1,31.0,29.92,NNW,329,2.0,3.0,88,0.00,,,0.00,weatherlink.com 1.10,2013-02-16 12:43:00,
2013-02-16 07:58:00,34.5,31.0,29.92,NNW,347,0.0,4.0,88,0.00,,,0.00,weatherlink.com 1.10,2013-02-16 12:58:00,
2013-02-16 08:13:00,34.7,31.0,29.93,North,10,1.0,5.0,87,0.00,,,0.00,weatherlink.com 1.10,2013-02-16 13:13:00,
2013-02-16 08:28:00,34.8,31.0,29.93,WSW,242,0.0,11.0,86,0.00,,,0.00,weatherlink.com 1.10,2013-02-16 13:28:00,
2013-02-16 08:43:00,35.0,31.0,29.92,ENE,74,2.0,5.0,85,0.00,,,0.00,weatherlink.com 1.10,2013-02-16 13:43:00,
2013-02-16 08:58:00,35.0,31.0,29.92,ENE,74,5.0,7.0,84,0.00,,,0.00,weatherlink.com 1.10,2013-02-16 13:58:00,
2013-02-16 09:13:00,35.2,31.0,29.91,NNE,27,3.0,5.0,84,0.00,,,0.00,weatherlink.com 1.10,2013-02-16 14:13:00,
2013-02-16 09:28:00,35.1,31.0,29.91,NE,39,2.0,6.0,84,0.00,,,0.00,weatherlink.com 1.10,2013-02-16 14:28:00,
2013-02-16 09:43:00,35.7,31.0,29.90,NNE,25,4.0,4.0,83,0.00,,,0.00,weatherlink.com 1.10,2013-02-16 14:43:00,
2013-02-16 09:58:00,35.3,31.0,29.90,NNW,346,4.0,9.0,83,0.00,,,0.00,weatherlink.com 1.10,2013-02-16 14:58:00,
2013-02-16 10:13:00,35.3,31.0,29.90,NNE,16,1.0,7.0,84,0.00,,,0.00,weatherlink.com 1.10,2013-02-16 15:13:00,
2013-02-16 10:28:00,35.1,31.0,29.90,ENE,73,2.0,5.0,85,0.00,,,0.00,weatherlink.com 1.10,2013-02-16 15:28:00,
2013-02-16 10:43:00,34.9,31.0,29.90,NE,34,3.0,5.0,85,0.00,,,0.00,weatherlink.com 1.10,2013-02-16 15:43:00,
2013-02-16 10:58:00,34.7,31.0,29.91,NNW,333,1.0,5.0,87,0.00,,,0.00,weatherlink.com 1.10,2013-02-16 15:58:00,
2013-02-16 11:13:00,34.5,31.0,29.90,NNE,29,2.0,3.0,87,0.00,,,0.00,weatherlink.com 1.10,2013-02-16 16:13:00,
2013-02-16 11:28:00,34.3,31.0,29.89,NNE,26,1.0,3.0,89,0.00,,,0.00,weatherlink.com 1.10,2013-02-16 16:28:00,
2013-02-16 11:43:00,34.2,32.0,29.89,NNE,18,2.0,3.0,90,0.00,,,0.00,weatherlink.com 1.10,2013-02-16 16:43:00,
2013-02-16 11:58:00,34.1,32.0,29.87,North,11,3.0,5.0,90,0.00,,,0.00,weatherlink.com 1.10,2013-02-16 16:58:00,
2013-02-16 12:13:00,34.1,32.0,29.87,East,93,1.0,4.0,91,0.00,,,0.00,weatherlink.com 1.10,2013-02-16 17:13:00,
2013-02-16 12:28:00,34.2,32.0,29.86,NE,50,0.0,4.0,91,0.01,,,0.01,weatherlink.com 1.10,2013-02-16 17:28:00,
2013-02-16 12:43:00,34.2,32.0,29.86,NE,50,0.0,2.0,91,0.01,,,0.01,weatherlink.com 1.10,2013-02-16 17:43:00,
2013-02-16 12:58:00,34.2,32.0,29.85,NE,45,2.0,5.0,91,0.01,,,0.01,weatherlink.com 1.10,2013-02-16 17:58:00,
2013-02-16 13:13:00,34.2,32.0,29.85,NE,53,1.0,3.0,91,0.01,,,0.01,weatherlink.com 1.10,2013-02-16 18:13:00,
2013-02-16 13:28:00,34.3,32.0,29.85,NE,43,0.0,2.0,91,0.00,,,0.01,weatherlink.com 1.10,2013-02-16 18:28:00,
2013-02-16 13:43:00,34.3,32.0,29.84,NNE,22,0.0,2.0,91,0.00,,,0.01,weatherlink.com 1.10,2013-02-16 18:43:00,
2013-02-16 13:58:00,34.0,32.0,29.84,NNW,342,1.0,3.0,91,0.00,,,0.01,weatherlink.com 1.10,2013-02-16 18:58:00,
2013-02-16 14:13:00,33.8,32.0,29.84,North,360,1.0,4.0,91,0.00,,,0.01,weatherlink.com 1.10,2013-02-16 19:13:00,
2013-02-16 14:28:00,33.7,32.0,29.83,ENE,63,1.0,2.0,92,0.01,,,0.02,weatherlink.com 1.10,2013-02-16 19:28:00,
2013-02-16 14:43:00,33.7,32.0,29.83,East,80,0.0,3.0,92,0.01,,,0.02,weatherlink.com 1.10,2013-02-16 19:43:00,
2013-02-16 14:58:00,33.6,32.0,29.82,NNE,32,0.0,2.0,93,0.01,,,0.02,weatherlink.com 1.10,2013-02-16 19:58:00,
2013-02-16 15:13:00,33.6,32.0,29.83,North,8,2.0,3.0,94,0.01,,,0.02,weatherlink.com 1.10,2013-02-16 20:13:00,
2013-02-16 15:28:00,33.6,32.0,29.82,NE,37,0.0,2.0,94,0.01,,,0.03,weatherlink.com 1.10,2013-02-16 20:28:00,
2013-02-16 15:43:00,33.5,32.0,29.82,NNE,18,0.0,3.0,94,0.01,,,0.03,weatherlink.com 1.10,2013-02-16 20:43:00,
2013-02-16 15:58:00,33.4,32.0,29.82,NNE,18,0.0,2.0,94,0.01,,,0.03,weatherlink.com 1.10,2013-02-16 20:58:00,
2013-02-16 16:13:00,33.3,32.0,29.82,NNE,32,1.0,2.0,94,0.01,,,0.03,weatherlink.com 1.10,2013-02-16 21:13:00,
2013-02-16 16:29:00,32.9,32.0,29.81,NE,50,0.0,2.0,95,0.00,,,0.03,weatherlink.com 1.10,2013-02-16 21:29:00,
2013-02-16 16:44:00,32.9,32.0,29.80,NE,41,1.0,1.0,95,0.01,,,0.04,weatherlink.com 1.10,2013-02-16 21:44:00,
2013-02-16 16:59:00,32.9,32.0,29.80,NE,46,0.0,2.0,95,0.01,,,0.04,weatherlink.com 1.10,2013-02-16 21:59:00,
2013-02-16 17:14:00,32.8,32.0,29.80,NE,55,0.0,2.0,95,0.01,,,0.04,weatherlink.com 1.10,2013-02-16 22:14:00,
2013-02-16 17:29:00,32.7,32.0,29.80,ENE,62,0.0,1.0,96,0.01,,,0.04,weatherlink.com 1.10,2013-02-16 22:29:00,
2013-02-16 17:44:00,32.8,32.0,29.79,ENE,70,0.0,3.0,96,0.00,,,0.04,weatherlink.com 1.10,2013-02-16 22:44:00,
2013-02-16 17:59:00,32.7,32.0,29.80,North,355,0.0,1.0,96,0.00,,,0.04,weatherlink.com 1.10,2013-02-16 22:59:00,
2013-02-16 18:14:00,32.5,32.0,29.81,North,355,0.0,0.0,96,0.00,,,0.04,weatherlink.com 1.10,2013-02-16 23:14:00,
2013-02-16 18:29:00,32.5,32.0,29.81,North,356,0.0,0.0,96,0.00,,,0.04,weatherlink.com 1.10,2013-02-16 23:29:00,
2013-02-16 18:44:00,32.4,31.0,29.80,North,355,0.0,0.0,96,0.00,,,0.04,weatherlink.com 1.10,2013-02-16 23:44:00,
2013-02-16 18:59:00,32.2,31.0,29.80,North,356,0.0,0.0,96,0.00,,,0.04,weatherlink.com 1.10,2013-02-16 23:59:00,
2013-02-16 19:14:00,32.1,31.0,29.79,North,355,0.0,0.0,96,0.00,,,0.04,weatherlink.com 1.10,2013-02-17 00:14:00,
2013-02-16 19:29:00,32.1,31.0,29.78,North,360,0.0,1.0,97,0.00,,,0.04,weatherlink.com 1.10,2013-02-17 00:29:00,
2013-02-16 19:44:00,32.2,32.0,29.78,ENE,72,0.0,2.0,97,0.00,,,0.04,weatherlink.com 1.10,2013-02-17 00:44:00,
2013-02-16 19:59:00,32.2,32.0,29.77,ENE,65,0.0,2.0,97,0.00,,,0.04,weatherlink.com 1.10,2013-02-17 00:59:00,
2013-02-16 20:14:00,32.2,32.0,29.76,NNE,29,0.0,2.0,97,0.00,,,0.04,weatherlink.com 1.10,2013-02-17 01:14:00,
2013-02-16 20:29:00,32.2,32.0,29.76,WNW,300,0.0,3.0,97,0.00,,,0.04,weatherlink.com 1.10,2013-02-17 01:29:00,
2013-02-16 20:44:00,32.2,32.0,29.75,NE,46,1.0,3.0,97,0.00,,,0.04,weatherlink.com 1.10,2013-02-17 01:44:00,
2013-02-16 20:59:00,32.1,31.0,29.75,NNW,338,1.0,3.0,96,0.00,,,0.04,weatherlink.com 1.10,2013-02-17 01:59:00,
2013-02-16 21:14:00,32.1,31.0,29.75,NNE,16,1.0,2.0,96,0.00,,,0.04,weatherlink.com 1.10,2013-02-17 02:14:00,
2013-02-16 21:29:00,32.1,31.0,29.74,North,10,1.0,1.0,96,0.00,,,0.04,weatherlink.com 1.10,2013-02-17 02:29:00,
2013-02-16 21:44:00,32.0,31.0,29.73,NE,50,0.0,1.0,96,0.00,,,0.04,weatherlink.com 1.10,2013-02-17 02:44:00,
2013-02-16 21:59:00,31.9,31.0,29.72,North,359,0.0,1.0,95,0.00,,,0.04,weatherlink.com 1.10,2013-02-17 02:59:00,
2013-02-16 22:14:00,31.7,31.0,29.72,NNW,347,1.0,1.0,95,0.00,,,0.04,weatherlink.com 1.10,2013-02-17 03:14:00,
2013-02-16 22:29:00,31.5,29.0,29.71,North,5,0.0,2.0,91,0.00,,,0.04,weatherlink.com 1.10,2013-02-17 03:29:00,
2013-02-16 22:44:00,31.2,28.0,29.70,NNE,18,1.0,2.0,89,0.00,,,0.04,weatherlink.com 1.10,2013-02-17 03:44:00,
2013-02-16 22:59:00,31.1,26.0,29.68,NW,307,1.0,5.0,80,0.00,,,0.04,weatherlink.com 1.10,2013-02-17 03:59:00,
2013-02-16 23:14:00,31.0,25.0,29.67,North,11,0.0,5.0,79,0.00,,,0.04,weatherlink.com 1.10,2013-02-17 04:14:00,
2013-02-16 23:29:00,30.9,25.0,29.67,NNE,15,2.0,4.0,77,0.00,,,0.04,weatherlink.com 1.10,2013-02-17 04:29:00,
2013-02-16 23:44:00,30.9,25.0,29.65,NE,45,1.0,3.0,77,0.00,,,0.04,weatherlink.com 1.10,2013-02-17 04:44:00,
2013-02-16 23:59:00,31.0,24.0,29.64,NE,48,6.0,8.0,76,0.00,,,0.04,weatherlink.com 1.10,2013-02-17 04:59:00,